King of Scandinavia — OVOL2 — position and weather

sailwx.info

Track history (hours):
 
Tides and Currents Weather Stations Pressure Air Temp Water Temp Dewpoint Dewpoint Depression Visibility Wind Speed Wind Dir Waves Ship Positions

King of Scandinavia

Ship's website: http://www.dfds.co.uk/DSW/EN/OnBoard/na/KING.htm

Last reported at 2014-Oct-22 21:33 UTC. Time now 2014-Oct-23 03:16 UTC.
Position N 54°12' E 000°47'.

Length 166 m; beam 27.6 m; draft 6.2 m.

Type: Passenger vessel. MMSI: 220449000.

Date/timePositionNaut miles runAvg speedWind from/ knotsBaromVisibWave heightAir tempDewpointWater temp
2014-Oct-22 21:33N 54°12' E 000°47'1716.8
2014-Oct-22 20:33N 54°21' E 000°22'1717.0
2014-Oct-22 19:33N 54°30' W 000°02'1717.2
2014-Oct-22 18:33N 54°39' W 000°27'1817.6
2014-Oct-22 17:33N 54°49' W 000°53'1817.8
2014-Oct-22 16:33N 54°59' W 001°19'14 1.9
2014-Oct-22 09:26N 54°50' W 001°00'2619.1
2014-Oct-22 08:06N 54°32' W 000°29'1019.1
2014-Oct-22 07:34N 54°25' W 000°17'1918.6
2014-Oct-22 06:33N 54°10' E 000°03'1717.2
2014-Oct-22 05:33N 53°57' E 000°23'1515.2
2014-Oct-22 04:33N 53°46' E 000°39'4615.1
2014-Oct-22 01:29N 53°08' E 001°24'1617.4
2014-Oct-22 00:33N 52°54' E 001°39'8312.7
2014-Oct-21 18:04N 52°32' E 003°50'714.5
2014-Oct-21 17:33N 52°31' E 004°02'1414.3
2014-Oct-21 16:34N 52°29' E 004°25'6 5.6
2014-Oct-21 15:29N 52°28' E 004°35'0 0.0
2014-Oct-21 14:32N 52°28' E 004°35'0 0.0
2014-Oct-21 13:32N 52°28' E 004°35'0 0.0
2014-Oct-21 12:32N 52°28' E 004°35'0 0.0
2014-Oct-21 11:32N 52°28' E 004°35'0 0.0
2014-Oct-21 10:32N 52°28' E 004°35'0 0.0
2014-Oct-21 09:32N 52°28' E 004°35'0 0.0
2014-Oct-21 08:32N 52°28' E 004°35'0 0.0
2014-Oct-21 07:33N 52°28' E 004°35'8 8.2
2014-Oct-21 06:33N 52°32' E 004°23'16417.9
2014-Oct-20 21:23N 54°12' E 000°46'1417.1
2014-Oct-20 20:33N 54°20' E 000°26'1717.2
2014-Oct-20 19:33N 54°29' E 000°01'1717.3
2014-Oct-20 18:33N 54°39' W 000°24'1817.6
2014-Oct-20 17:33N 54°48' W 000°50'1817.8
2014-Oct-20 16:32N 54°58' W 001°16'2 0.3
2014-Oct-20 07:15N 54°57' W 001°12'1014.9
2014-Oct-20 06:33N 54°52' W 000°57'1915.2
2014-Oct-20 05:17N 54°41' W 000°29'1115.3
2014-Oct-20 04:33N 54°35' W 000°13'1717.0
2014-Oct-20 03:33N 54°26' E 000°11'1716.6
2014-Oct-20 02:33N 54°16' E 000°35'16216.2
2014-Oct-19 16:33N 52°39' E 004°12'1515.2
2014-Oct-19 15:34N 52°28' E 004°31'3 2.8
2014-Oct-19 14:31N 52°28' E 004°35'0 0.0
2014-Oct-19 13:31N 52°28' E 004°35'0 0.0
2014-Oct-19 12:31N 52°28' E 004°35'0 0.0
2014-Oct-19 11:28N 52°28' E 004°35'0 0.0
2014-Oct-19 10:28N 52°28' E 004°35'0 0.0
2014-Oct-19 09:31N 52°28' E 004°35'0 0.0
2014-Oct-19 08:31N 52°28' E 004°35'1 0.9
2014-Oct-19 07:34N 52°28' E 004°34'1514.7
2014-Oct-19 06:34N 52°37' E 004°15'236159.8
2014-Oct-19 05:05N 54°56' W 001°09'7810.2
2014-Oct-18 21:29N 54°13' E 000°43'1617.1
2014-Oct-18 20:34N 54°22' E 000°21'1716.9
2014-Oct-18 19:33N 54°31' W 000°04'1717.0
2014-Oct-18 18:34N 54°40' W 000°28'1717.1
2014-Oct-18 17:33N 54°50' W 000°53'1717.2
2014-Oct-18 16:32N 54°59' W 001°19'5 0.5
2014-Oct-18 07:16N 54°57' W 001°11'1216.6
2014-Oct-18 06:33N 54°51' W 000°55'1918.5
2014-Oct-18 05:31N 54°40' W 000°27'1818.6
2014-Oct-18 04:33N 54°30' W 000°01'1818.1
2014-Oct-18 03:33N 54°20' E 000°25'15815.8
2014-Oct-17 17:33N 52°46' E 003°58'1515.1
2014-Oct-17 16:33N 52°36' E 004°16'1413.8
2014-Oct-17 15:33N 52°28' E 004°34'0 0.4
2014-Oct-17 14:33N 52°28' E 004°35'0 0.0
2014-Oct-17 13:33N 52°28' E 004°35'0 0.0
2014-Oct-17 12:33N 52°28' E 004°35'0 0.0
2014-Oct-17 11:33N 52°28' E 004°35'0 0.0
2014-Oct-17 10:33N 52°28' E 004°35'0 0.0
2014-Oct-17 09:33N 52°28' E 004°35'0 0.0
2014-Oct-17 08:33N 52°28' E 004°35'0 0.0
2014-Oct-17 07:34N 52°28' E 004°35'1212.1
2014-Oct-17 06:33N 52°35' E 004°19'1717.2
2014-Oct-17 05:33N 52°47' E 003°58'14518.2
2014-Oct-16 21:33N 54°14' E 000°43'1818.2
2014-Oct-16 20:33N 54°24' E 000°17'1818.0
2014-Oct-16 19:33N 54°33' W 000°10'1817.8
2014-Oct-16 18:33N 54°43' W 000°36'1919.4
2014-Oct-16 17:33N 54°53' W 001°04'3 0.3
2014-Oct-16 07:14N 54°56' W 001°08'1217.8
2014-Oct-16 06:33N 54°49' W 000°51'1818.0
2014-Oct-16 05:33N 54°39' W 000°25'1818.3
2014-Oct-16 04:33N 54°29' E 000°01'1918.6
2014-Oct-16 03:33N 54°19' E 000°28'1716.7
2014-Oct-16 02:33N 54°10' E 000°52'13815.3
2014-Oct-15 17:33N 52°47' E 003°57'1515.1
2014-Oct-15 16:33N 52°37' E 004°16'1414.2
2014-Oct-15 15:33N 52°28' E 004°34'1 0.8
2014-Oct-15 14:33N 52°28' E 004°35'0 0.0
2014-Oct-15 13:33N 52°28' E 004°35'0 0.0
2014-Oct-15 12:33N 52°28' E 004°35'0 0.0
2014-Oct-15 11:33N 52°28' E 004°35'0 0.0
2014-Oct-15 10:33N 52°28' E 004°35'0 0.0
2014-Oct-15 09:33N 52°28' E 004°35'0 0.0
2014-Oct-15 08:33N 52°28' E 004°35'0 0.0
2014-Oct-15 07:34N 52°28' E 004°35'1010.3
2014-Oct-15 06:33N 52°34' E 004°21'16117.2
2014-Oct-14 21:11N 54°12' E 000°46'1118.1
2014-Oct-14 20:33N 54°18' E 000°30'1918.6
2014-Oct-14 19:33N 54°28' E 000°03'1918.8
2014-Oct-14 18:34N 54°38' W 000°24'1918.6
2014-Oct-14 17:33N 54°49' W 000°51'1818.0
2014-Oct-14 16:32N 54°59' W 001°18'7 0.7
2014-Oct-14 07:29N 54°56' W 001°08'2829.3
2014-Oct-14 06:32N 54°38' W 000°31'9 4.5
2014-Oct-14 04:33N 54°34' W 000°17'1716.9
2014-Oct-14 03:33N 54°26' E 000°09'1717.2
2014-Oct-14 02:33N 54°17' E 000°34'15116.7
2014-Oct-13 17:33N 52°47' E 003°57'1616.0
2014-Oct-13 16:33N 52°36' E 004°17'1414.0
2014-Oct-13 15:34N 52°28' E 004°35'0 0.1
2014-Oct-13 14:31N 52°28' E 004°35'0 0.0
2014-Oct-13 13:31N 52°28' E 004°35'0 0.0
2014-Oct-13 12:31N 52°28' E 004°35'0 0.1
2014-Oct-13 11:33N 52°28' E 004°35'0 0.0
2014-Oct-13 10:33N 52°28' E 004°35'0 0.0
2014-Oct-13 09:33N 52°28' E 004°35'0 0.1
2014-Oct-13 08:33N 52°28' E 004°35'0 0.1
2014-Oct-13 07:33N 52°28' E 004°35'1212.2
2014-Oct-13 06:33N 52°35' E 004°19'1818.3
2014-Oct-13 05:33N 52°47' E 003°56'  
Track history (hours):
 
Tides and Currents Weather Stations Pressure Air Temp Water Temp Dewpoint Dewpoint Depression Visibility Wind Speed Wind Dir Waves Ship Positions

King of Scandinavia

Ship's website: http://www.dfds.co.uk/DSW/EN/OnBoard/na/KING.htm

Last reported at 2014-Oct-22 21:33 UTC. Time now 2014-Oct-23 03:16 UTC.
Position N 54°12' E 000°47'.

Length 166 m; beam 27.6 m; draft 6.2 m.

Type: Passenger vessel. MMSI: 220449000.

Date/timePositionNaut miles runAvg speedWind from/ knotsBaromVisibWave heightAir tempDewpointWater temp
2014-Oct-22 21:33N 54°12' E 000°47'1716.8
2014-Oct-22 20:33N 54°21' E 000°22'1717.0
2014-Oct-22 19:33N 54°30' W 000°02'1717.2
2014-Oct-22 18:33N 54°39' W 000°27'1817.6
2014-Oct-22 17:33N 54°49' W 000°53'1817.8
2014-Oct-22 16:33N 54°59' W 001°19'14 1.9
2014-Oct-22 09:26N 54°50' W 001°00'2619.1
2014-Oct-22 08:06N 54°32' W 000°29'1019.1
2014-Oct-22 07:34N 54°25' W 000°17'1918.6
2014-Oct-22 06:33N 54°10' E 000°03'1717.2
2014-Oct-22 05:33N 53°57' E 000°23'1515.2
2014-Oct-22 04:33N 53°46' E 000°39'4615.1
2014-Oct-22 01:29N 53°08' E 001°24'1617.4
2014-Oct-22 00:33N 52°54' E 001°39'8312.7
2014-Oct-21 18:04N 52°32' E 003°50'714.5
2014-Oct-21 17:33N 52°31' E 004°02'1414.3
2014-Oct-21 16:34N 52°29' E 004°25'6 5.6
2014-Oct-21 15:29N 52°28' E 004°35'0 0.0
2014-Oct-21 14:32N 52°28' E 004°35'0 0.0
2014-Oct-21 13:32N 52°28' E 004°35'0 0.0
2014-Oct-21 12:32N 52°28' E 004°35'0 0.0
2014-Oct-21 11:32N 52°28' E 004°35'0 0.0
2014-Oct-21 10:32N 52°28' E 004°35'0 0.0
2014-Oct-21 09:32N 52°28' E 004°35'0 0.0
2014-Oct-21 08:32N 52°28' E 004°35'0 0.0
2014-Oct-21 07:33N 52°28' E 004°35'8 8.2
2014-Oct-21 06:33N 52°32' E 004°23'16417.9
2014-Oct-20 21:23N 54°12' E 000°46'1417.1
2014-Oct-20 20:33N 54°20' E 000°26'1717.2
2014-Oct-20 19:33N 54°29' E 000°01'1717.3
2014-Oct-20 18:33N 54°39' W 000°24'1817.6
2014-Oct-20 17:33N 54°48' W 000°50'1817.8
2014-Oct-20 16:32N 54°58' W 001°16'2 0.3
2014-Oct-20 07:15N 54°57' W 001°12'1014.9
2014-Oct-20 06:33N 54°52' W 000°57'1915.2
2014-Oct-20 05:17N 54°41' W 000°29'1115.3
2014-Oct-20 04:33N 54°35' W 000°13'1717.0
2014-Oct-20 03:33N 54°26' E 000°11'1716.6
2014-Oct-20 02:33N 54°16' E 000°35'16216.2
2014-Oct-19 16:33N 52°39' E 004°12'1515.2
2014-Oct-19 15:34N 52°28' E 004°31'3 2.8
2014-Oct-19 14:31N 52°28' E 004°35'0 0.0
2014-Oct-19 13:31N 52°28' E 004°35'0 0.0
2014-Oct-19 12:31N 52°28' E 004°35'0 0.0
2014-Oct-19 11:28N 52°28' E 004°35'0 0.0
2014-Oct-19 10:28N 52°28' E 004°35'0 0.0
2014-Oct-19 09:31N 52°28' E 004°35'0 0.0
2014-Oct-19 08:31N 52°28' E 004°35'1 0.9
2014-Oct-19 07:34N 52°28' E 004°34'1514.7
2014-Oct-19 06:34N 52°37' E 004°15'236159.8
2014-Oct-19 05:05N 54°56' W 001°09'7810.2
2014-Oct-18 21:29N 54°13' E 000°43'1617.1
2014-Oct-18 20:34N 54°22' E 000°21'1716.9
2014-Oct-18 19:33N 54°31' W 000°04'1717.0
2014-Oct-18 18:34N 54°40' W 000°28'1717.1
2014-Oct-18 17:33N 54°50' W 000°53'1717.2
2014-Oct-18 16:32N 54°59' W 001°19'5 0.5
2014-Oct-18 07:16N 54°57' W 001°11'1216.6
2014-Oct-18 06:33N 54°51' W 000°55'1918.5
2014-Oct-18 05:31N 54°40' W 000°27'1818.6
2014-Oct-18 04:33N 54°30' W 000°01'1818.1
2014-Oct-18 03:33N 54°20' E 000°25'15815.8
2014-Oct-17 17:33N 52°46' E 003°58'1515.1
2014-Oct-17 16:33N 52°36' E 004°16'1413.8
2014-Oct-17 15:33N 52°28' E 004°34'0 0.4
2014-Oct-17 14:33N 52°28' E 004°35'0 0.0
2014-Oct-17 13:33N 52°28' E 004°35'0 0.0
2014-Oct-17 12:33N 52°28' E 004°35'0 0.0
2014-Oct-17 11:33N 52°28' E 004°35'0 0.0
2014-Oct-17 10:33N 52°28' E 004°35'0 0.0
2014-Oct-17 09:33N 52°28' E 004°35'0 0.0
2014-Oct-17 08:33N 52°28' E 004°35'0 0.0
2014-Oct-17 07:34N 52°28' E 004°35'1212.1
2014-Oct-17 06:33N 52°35' E 004°19'1717.2
2014-Oct-17 05:33N 52°47' E 003°58'14518.2
2014-Oct-16 21:33N 54°14' E 000°43'1818.2
2014-Oct-16 20:33N 54°24' E 000°17'1818.0
2014-Oct-16 19:33N 54°33' W 000°10'1817.8
2014-Oct-16 18:33N 54°43' W 000°36'1919.4
2014-Oct-16 17:33N 54°53' W 001°04'3 0.3
2014-Oct-16 07:14N 54°56' W 001°08'1217.8
2014-Oct-16 06:33N 54°49' W 000°51'1818.0
2014-Oct-16 05:33N 54°39' W 000°25'1818.3
2014-Oct-16 04:33N 54°29' E 000°01'1918.6
2014-Oct-16 03:33N 54°19' E 000°28'1716.7
2014-Oct-16 02:33N 54°10' E 000°52'13815.3
2014-Oct-15 17:33N 52°47' E 003°57'1515.1
2014-Oct-15 16:33N 52°37' E 004°16'1414.2
2014-Oct-15 15:33N 52°28' E 004°34'1 0.8
2014-Oct-15 14:33N 52°28' E 004°35'0 0.0
2014-Oct-15 13:33N 52°28' E 004°35'0 0.0
2014-Oct-15 12:33N 52°28' E 004°35'0 0.0
2014-Oct-15 11:33N 52°28' E 004°35'0 0.0
2014-Oct-15 10:33N 52°28' E 004°35'0 0.0
2014-Oct-15 09:33N 52°28' E 004°35'0 0.0
2014-Oct-15 08:33N 52°28' E 004°35'0 0.0
2014-Oct-15 07:34N 52°28' E 004°35'1010.3
2014-Oct-15 06:33N 52°34' E 004°21'16117.2
2014-Oct-14 21:11N 54°12' E 000°46'1118.1
2014-Oct-14 20:33N 54°18' E 000°30'1918.6
2014-Oct-14 19:33N 54°28' E 000°03'1918.8
2014-Oct-14 18:34N 54°38' W 000°24'1918.6
2014-Oct-14 17:33N 54°49' W 000°51'1818.0
2014-Oct-14 16:32N 54°59' W 001°18'7 0.7
2014-Oct-14 07:29N 54°56' W 001°08'2829.3
2014-Oct-14 06:32N 54°38' W 000°31'9 4.5
2014-Oct-14 04:33N 54°34' W 000°17'1716.9
2014-Oct-14 03:33N 54°26' E 000°09'1717.2
2014-Oct-14 02:33N 54°17' E 000°34'15116.7
2014-Oct-13 17:33N 52°47' E 003°57'1616.0
2014-Oct-13 16:33N 52°36' E 004°17'1414.0
2014-Oct-13 15:34N 52°28' E 004°35'0 0.1
2014-Oct-13 14:31N 52°28' E 004°35'0 0.0
2014-Oct-13 13:31N 52°28' E 004°35'0 0.0
2014-Oct-13 12:31N 52°28' E 004°35'0 0.1
2014-Oct-13 11:33N 52°28' E 004°35'0 0.0
2014-Oct-13 10:33N 52°28' E 004°35'0 0.0
2014-Oct-13 09:33N 52°28' E 004°35'0 0.1
2014-Oct-13 08:33N 52°28' E 004°35'0 0.1
2014-Oct-13 07:33N 52°28' E 004°35'1212.2
2014-Oct-13 06:33N 52°35' E 004°19'1818.3
2014-Oct-13 05:33N 52°47' E 003°56'  

Dump ship's entire track history